Location: *
(60.1759°S, 155.0663°W)
Time: 14:02:06
(UTC+00:00)

Cosmos 1825 - Pass Details

Date: 17 September 2019
Orbit: 503 x 510 km, 82.5° (Epoch: 15 October)

Event Time Altitude Azimuth Distance (km) Brightness Sun altitude
Exits shadow 13:54:04 19° 232° (SW) 1,280 4.0 -18.7°
Drops below altitude 10° 13:56:44 10° 189° (S) 1,768 5.2 -18.4°
Sets 13:59:22 0° 170° (S) 2,663 6.4 -18.1°
